Weather History for Port Angeles, WA

Change the Weather History Date:

Friday, December 20, 2013

  Actual Average Record
Temperature  
Mean Temperature 36 °F -  
Max Temperature 39 °F 43 °F 54 °F (1973)
Min Temperature 32 °F 32 °F 16 °F (1990)
Degree Days  
Heating Degree Days 30    
Moisture  
Dew Point 34 °F    
Average Humidity 94    
Maximum Humidity 97    
Minimum Humidity 79    
Precipitation  
Precipitation 0.35 in - - ()
Sea Level Pressure  
Sea Level Pressure 29.86 in    
Wind  
Wind Speed 2 mph (South)    
Max Wind Speed 7 mph    
Max Gust Speed -    
Visibility 4 miles    
Events Rain , Snow    
Averages and records for this station are not official NWS values.
T = Trace of Precipitation, MM = Missing Value Source: NWS Daily Summary

Daily Weather History Graph

Daily Weather History Graph

Search for Another Location

Airport:

Trip Planner

Search our weather history database for the weather conditions in past years. The results will help you decide how hot, cold, wet, or windy it might be!

Date:

Astronomy

Dec. 20, 2013 Rise Set
Actual Time 8:01 AM PST 4:22 PM PST
Civil Twilight 7:24 AM PST 4:59 PM PST
Nautical Twilight 6:44 AM PST 5:38 PM PST
Astronomical Twilight 6:06 AM PST 6:16 PM PST
Moon 8:02 PM PST (12/20) 9:45 AM PST (12/20)
Length of Visible Light 9h 34m
Length of Day
8h 21m
Waning Gibbous, 90% of the Moon is Illuminated
Dec 20
Waning Gibbous
Dec 25
Last Quarter
Jan 1
New
Jan 7
First Quarter
Jan 15
Full

Hourly Weather History & Observations

Time (PST) Temp. Windchill Dew Point Humidity Pressure Visibility Wind Dir Wind Speed Gust Speed Precip Events Conditions
12:53 AM 34.0 °F 31.0 °F 28.9 °F 82% 30.14 in 10.0 mi SSE 3.5 mph - N/A   Overcast
1:53 AM 34.0 °F 28.8 °F 28.0 °F 79% 30.12 in 7.0 mi ESE 5.8 mph - 0.00 in Snow Light Snow
2:40 AM 33.1 °F 30.0 °F 30.0 °F 89% 30.10 in 2.5 mi SE 3.5 mph - 0.00 in Snow Light Snow
2:53 AM 33.1 °F 28.7 °F 30.0 °F 89% 30.10 in 1.5 mi SE 4.6 mph - 0.02 in Snow Light Snow
3:45 AM 33.1 °F - 30.9 °F 92% 30.04 in 2.0 mi Calm Calm - 0.02 in Snow Light Snow
3:53 AM 33.1 °F - 30.9 °F 92% 30.05 in 2.0 mi Calm Calm - 0.02 in Snow Light Snow
3:56 AM 33.1 °F - 30.9 °F 92% 30.04 in 1.8 mi Calm Calm - 0.01 in Snow Light Snow
4:07 AM 32.0 °F - 30.9 °F 96% 30.04 in 2.0 mi Calm Calm - 0.01 in Snow Light Snow
4:22 AM 33.1 °F - 30.9 °F 92% 30.05 in 1.8 mi Calm Calm - 0.02 in Snow Light Snow
4:36 AM 33.1 °F - 30.9 °F 92% 30.05 in 1.2 mi Calm Calm - 0.03 in Snow Light Snow
4:48 AM 32.0 °F - 30.2 °F 93% 30.04 in 0.8 mi Calm Calm - 0.05 in Snow Light Snow
4:49 AM 32.0 °F - 30.9 °F 96% 30.05 in 0.8 mi Calm Calm - 0.05 in Snow Light Snow
5:15 AM 33.1 °F - 30.9 °F 92% 30.01 in 1.2 mi Calm Calm - 0.04 in Snow Light Snow
5:21 AM 33.1 °F - 30.9 °F 92% 30.01 in 1.2 mi Calm Calm - 0.05 in Snow Light Snow
5:42 AM 32.0 °F 28.7 °F 30.9 °F 96% 29.99 in 1.0 mi SSW 3.5 mph - 0.08 in Snow Light Snow
5:53 AM 33.1 °F 30.0 °F 30.9 °F 92% 29.97 in 1.5 mi SE 3.5 mph - 0.10 in Snow Light Snow
6:03 AM 33.1 °F - 30.9 °F 92% 29.97 in 3.0 mi Calm Calm - 0.00 in Snow Light Snow
6:11 AM 33.1 °F - 30.9 °F 92% 29.98 in 4.0 mi Calm Calm - 0.00 in Snow Light Snow
6:53 AM 33.1 °F - 32.0 °F 96% 29.96 in 10.0 mi Calm Calm - 0.00 in   Overcast
7:09 AM 33.1 °F - 32.0 °F 96% 29.93 in 10.0 mi Calm Calm - N/A   Overcast
7:11 AM 33.1 °F 30.0 °F 30.9 °F 92% 29.93 in 10.0 mi SSW 3.5 mph - N/A   Overcast
7:53 AM 33.1 °F - 30.9 °F 92% 29.92 in 10.0 mi Calm Calm - N/A   Overcast
8:53 AM 33.1 °F 26.9 °F 32.0 °F 96% 29.88 in 10.0 mi West 6.9 mph - 0.01 in Rain Light Rain
9:53 AM 34.0 °F - 33.1 °F 96% 29.81 in 10.0 mi Calm Calm - 0.00 in   Overcast
10:53 AM 35.1 °F 29.3 °F 32.0 °F 89% 29.79 in 10.0 mi West 6.9 mph - 0.00 in   Overcast
11:46 AM 35.1 °F 30.1 °F 33.1 °F 92% 29.74 in 4.0 mi WSW 5.8 mph - 0.00 in Rain Light Rain
11:53 AM 35.1 °F 30.1 °F 33.1 °F 92% 29.74 in 5.0 mi WSW 5.8 mph - 0.00 in Rain Light Rain
12:53 PM 36.0 °F - 33.1 °F 89% 29.73 in 10.0 mi Calm Calm - 0.02 in   Overcast
1:53 PM 35.1 °F - 34.0 °F 96% 29.71 in 10.0 mi Calm Calm - N/A   Overcast
2:39 PM 36.0 °F - 34.0 °F 93% 29.68 in 10.0 mi Calm Calm - N/A   Overcast
2:53 PM 36.0 °F - 35.1 °F 97% 29.69 in 10.0 mi Calm Calm - 0.00 in Rain Light Rain
3:25 PM 36.0 °F 33.3 °F 34.0 °F 93% 29.69 in 7.0 mi SSE 3.5 mph - 0.00 in   Overcast
3:39 PM 36.0 °F - 34.0 °F 93% 29.69 in 10.0 mi Calm Calm - 0.00 in   Overcast
3:53 PM 36.0 °F - 34.0 °F 93% 29.71 in 3.0 mi Calm Calm - 0.00 in   Overcast
4:31 PM 36.0 °F - 35.1 °F 97% 29.70 in 1.8 mi Calm Calm - 0.00 in   Overcast
4:43 PM 36.0 °F - 35.1 °F 97% 29.70 in 3.0 mi Calm Calm - 0.00 in   Overcast
4:53 PM 36.0 °F - 35.1 °F 97% 29.71 in 4.0 mi Calm Calm - 0.00 in   Overcast
5:53 PM 36.0 °F 32.1 °F 35.1 °F 97% 29.72 in 3.0 mi WSW 4.6 mph - 0.00 in Rain Light Rain
6:25 PM 36.0 °F 33.3 °F 35.1 °F 97% 29.73 in 2.5 mi WSW 3.5 mph - 0.01 in Rain Light Rain
6:38 PM 36.0 °F - 35.1 °F 97% 29.73 in 1.8 mi Calm Calm - 0.02 in Rain Light Rain
6:53 PM 36.0 °F 33.3 °F 35.1 °F 97% 29.74 in 1.5 mi West 3.5 mph - 0.02 in Rain Light Rain
7:09 PM 37.0 °F 34.5 °F 36.0 °F 96% 29.73 in 2.5 mi WSW 3.5 mph - 0.01 in Rain Light Rain
7:36 PM 37.9 °F 35.5 °F 37.0 °F 97% 29.74 in 1.2 mi Variable 3.5 mph - 0.03 in Rain Light Rain
7:53 PM 39.0 °F 36.8 °F 37.0 °F 93% 29.77 in 0.8 mi NNE 3.5 mph - 0.04 in Rain Light Rain
8:02 PM 39.0 °F - 37.0 °F 93% 29.76 in 1.2 mi Calm Calm - 0.00 in Rain Light Rain
8:12 PM 39.0 °F - 37.9 °F 96% 29.76 in 2.0 mi Calm Calm - 0.00 in   Overcast
8:19 PM 39.0 °F - 37.9 °F 96% 29.77 in 1.2 mi Calm Calm - 0.00 in   Overcast
8:36 PM 39.0 °F 35.7 °F 37.0 °F 93% 29.78 in 2.5 mi ENE 4.6 mph - 0.01 in   Overcast
8:53 PM 37.9 °F 34.4 °F 37.0 °F 97% 29.79 in 2.5 mi ENE 4.6 mph - 0.02 in Rain Light Rain
9:09 PM 39.0 °F 36.8 °F 37.0 °F 93% 29.79 in 3.0 mi NE 3.5 mph - 0.00 in Rain Light Rain
9:27 PM 37.9 °F - 37.0 °F 97% 29.80 in 2.5 mi Calm Calm - 0.01 in Rain Light Rain
9:37 PM 37.9 °F - 37.0 °F 97% 29.81 in 3.0 mi Calm Calm - 0.01 in   Overcast
9:45 PM 37.9 °F - 37.0 °F 97% 29.81 in 2.5 mi Calm Calm - 0.02 in Rain Light Rain
9:53 PM 37.9 °F 35.5 °F 36.0 °F 93% 29.82 in 2.5 mi SE 3.5 mph - 0.02 in Rain Light Rain
10:08 PM 37.9 °F - 37.0 °F 97% 29.82 in 1.2 mi Calm Calm - 0.01 in   Overcast
10:19 PM 37.9 °F - 37.0 °F 97% 29.82 in 3.0 mi Calm Calm - 0.01 in   Overcast
10:36 PM 37.9 °F 35.5 °F 37.0 °F 97% 29.83 in 2.5 mi ESE 3.5 mph - 0.01 in   Overcast
10:53 PM 37.9 °F 35.5 °F 36.0 °F 93% 29.85 in 2.0 mi SSE 3.5 mph - 0.01 in   Overcast
11:00 PM 37.9 °F 35.5 °F 37.0 °F 97% 29.84 in 1.8 mi SSE 3.5 mph - 0.00 in Rain Light Rain
11:07 PM 37.9 °F - 37.0 °F 97% 29.85 in 2.0 mi Calm Calm - 0.01 in   Overcast
11:26 PM 37.9 °F - 37.0 °F 97% 29.85 in 3.0 mi Calm Calm - 0.01 in   Overcast
11:42 PM 37.9 °F - 36.0 °F 93% 29.86 in 1.8 mi Calm Calm - 0.01 in   Overcast
11:53 PM 37.9 °F - 37.0 °F 97% 29.88 in 1.5 mi Calm Calm - 0.02 in   Overcast